FW7499 Weather Reports


time (UTC)temp
C
wind
direction
speed
KPH
gust
KPH
rain 1hr
cm
rain 24hr
cm
rain mn
cm
humidity
%
barometer
mb
20260905185510 32 114 4.8 19.3 0.00 0.00 0.00 59 1015.5
20260905185017 32 100 6.4 20.9 0.00 0.00 0.00 60 1015.7
20260905184504 32 109 6.4 20.9 0.00 0.00 0.00 61 1015.9
20260905184003 32 292 6.4 17.7 0.00 0.00 0.00 61 1016.0
20260905183506 32 309 3.2 20.9 0.00 0.00 0.00 62 1016.1
20260905183005 31 55 8.0 20.9 0.00 0.00 0.00 63 1016.2
20260905182505 31 114 9.7 19.3 0.00 0.00 0.00 63 1016.2
20260905182009 32 128 4.8 19.3 0.00 0.00 0.00 63 1016.2
20260905181513 31 162 4.8 22.5 0.00 0.00 0.00 62 1016.3
20260905181003 31 259 6.4 27.4 0.00 0.00 0.00 63 1016.3
20260905180512 31 111 6.4 27.4 0.00 0.00 0.00 62 1016.3
20260905180008 31 76 1.6 19.3 0.00 0.00 0.00 64 1016.2
20260905175515 31 344 1.6 19.3 0.00 0.00 0.00 66 1016.1
20260905175007 31 319 4.8 16.1 0.00 0.00 0.00 65 1016.1
20260905174518 31 45 6.4 16.1 0.00 0.00 0.00 64 1016.2
20260905174013 31 94 3.2 14.5 0.00 0.00 0.00 66 1016.1
20260905173506 31 142 4.8 14.5 0.00 0.00 0.00 64 1016.1
20260905173003 31 98 3.2 20.9 0.00 0.00 0.00 64 1016.2
20260905172504 31 332 6.4 20.9 0.00 0.00 0.00 64 1016.1
20260905172009 31 352 1.6 17.7 0.00 0.00 0.00 62 1016.2
20260905171518 31 341 1.6 9.7 0.00 0.00 0.00 63 1016.2
20260905171013 32 320 4.8 8.0 0.00 0.00 0.00 62 1016.2
20260905170510 31 193 3.2 9.7 0.00 0.00 0.00 64 1016.2
20260905170016 32 323 4.8 12.9 0.00 0.00 0.00 61 1016.3
20260905165511 32 71 3.2 12.9 0.00 0.00 0.00 62 1016.2
20260905165013 32 5 3.2 8.0 0.00 0.00 0.00 61 1016.2
20260905164524 32 360 1.6 8.0 0.00 0.00 0.00 62 1016.2
20260905164006 32 339 3.2 6.4 0.00 0.00 0.00 62 1016.3
20260905163510 32 336 1.6 12.9 0.00 0.00 0.00 64 1016.2
20260905163018 32 56 1.6 12.9 0.00 0.00 0.00 64 1016.2
20260905162521 32 352 3.2 8.0 0.00 0.00 0.00 60 1016.2
20260905162007 32 352 3.2 6.4 0.00 0.00 0.00 61 1016.2
20260905161507 32 360 3.2 6.4 0.00 0.00 0.00 62 1016.2
20260905161006 32 352 3.2 6.4 0.00 0.00 0.00 62 1016.0
20260905160503 32 352 0.0 6.4 0.00 0.00 0.00 60 1015.8
20260905160030 31 340 1.6 3.2 0.00 0.00 0.00 59 1015.8
20260905155511 31 340 0.0 3.2 0.00 0.00 0.00 64 1015.8
20260905155009 31 340 0.0 3.2 0.00 0.00 0.00 62 1015.7
20260905154509 31 340 1.6 3.2 0.00 0.00 0.00 64 1015.7
20260905154012 31 344 1.6 3.2 0.00 0.00 0.00 63 1015.7
20260905153510 31 41 0.0 3.2 0.00 0.00 0.00 67 1015.7
20260905153009 30 37 1.6 3.2 0.00 0.00 0.00 65 1015.7
20260905152512 30 107 0.0 3.2 0.00 0.00 0.00 65 1015.6
20260905152009 30 107 0.0 3.2 0.00 0.00 0.00 65 1015.5
20260905151531 29 113 0.0 3.2 0.00 0.00 0.00 68 1015.5
20260905151008 28 113 0.0 3.2 0.00 0.00 0.00 67 1015.3
20260905150508 28 113 0.0 3.2 0.00 0.00 0.00 71 1015.3
20260905150011 28 113 0.0 3.2 0.00 0.00 0.00 67 1015.3
20260905145521 28 113 1.6 3.2 0.00 0.00 0.00 67 1015.3
20260905145012 28 112 0.0 3.2 0.00 0.00 0.00 70 1015.3
20260905144522 28 112 0.0 3.2 0.00 0.00 0.00 68 1015.2
20260905144009 28 111 1.6 4.8 0.00 0.00 0.00 68 1015.1
20260905143507 28 96 1.6 4.8 0.00 0.00 0.00 68 1014.9
20260905143025 28 105 0.0 4.8 0.00 0.00 0.00 69 1014.7
20260905142508 28 100 1.6 4.8 0.00 0.00 0.00 69 1014.7
20260905142014 28 115 1.6 3.2 0.00 0.00 0.00 70 1014.7
20260905141519 28 88 1.6 6.4 0.00 0.00 0.00 71 1014.7
20260905141015 27 242 0.0 6.4 0.00 0.00 0.00 71 1014.4
20260905140517 27 252 1.6 6.4 0.00 0.00 0.00 72 1014.3
20260905140012 27 223 0.0 3.2 0.00 0.00 0.00 73 1014.1
20260905135514 27 105 0.0 3.2 0.00 0.00 0.00 74 1014.3
20260905135010 27 96 0.0 9.7 0.00 0.00 0.00 74 1014.4
20260905134516 27 96 3.2 9.7 0.00 0.00 0.00 74 1014.5
20260905134011 26 96 3.2 4.8 0.00 0.00 0.00 75 1014.6
20260905133515 26 283 1.6 1.6 0.00 0.00 0.00 77 1014.7
20260905133021 26 283 0.0 0.0 0.00 0.00 0.00 80 1014.8
20260905132512 26 283 0.0 0.0 0.00 0.00 0.00 78 1014.6
20260905132017 25 283 0.0 0.0 0.00 0.00 0.00 81 1014.4
20260905131541 25 283 0.0 0.0 0.00 0.00 0.00 80 1014.2
20260905131016 25 283 0.0 0.0 0.00 0.00 0.00 80 1014.1
20260905130516 24 283 0.0 0.0 0.00 0.00 0.00 81 1014.1
20260905130027 24 283 0.0 0.0 0.00 0.00 0.00 82 1014.1
20260905125515 23 283 0.0 0.0 0.00 0.00 0.00 83 1014.0
20260905125010 23 283 0.0 0.0 0.00 0.00 0.00 83 1014.0
20260905124527 23 283 0.0 0.0 0.00 0.00 0.00 84 1014.0
20260905124007 23 283 0.0 0.0 0.00 0.00 0.00 85 1013.9
20260905123510 23 283 0.0 0.0 0.00 0.00 0.00 85 1013.8
20260905123019 23 283 0.0 0.0 0.00 0.00 0.00 84 1013.7
20260905122516 23 283 0.0 0.0 0.00 0.00 0.00 84 1013.5
20260905122012 23 283 0.0 0.0 0.00 0.00 0.00 84 1013.4
20260905121525 23 283 0.0 0.0 0.00 0.00 0.00 84 1013.4
20260905121018 23 284 0.0 0.0 0.00 0.00 0.00 84 1013.4
20260905120515 23 283 0.0 0.0 0.00 0.00 0.00 85 1013.3
20260905120018 23 283 0.0 0.0 0.00 0.00 0.00 85 1013.3
20260905115513 23 283 0.0 0.0 0.00 0.00 0.00 85 1013.2
20260905115014 23 283 0.0 0.0 0.00 0.00 0.00 86 1013.2
20260905114538 23 283 0.0 0.0 0.00 0.00 0.00 86 1013.3
20260905114015 23 283 0.0 0.0 0.00 0.00 0.00 86 1013.4
20260905113518 23 283 0.0 0.0 0.00 0.00 0.00 87 1013.4
20260905113034 23 283 0.0 0.0 0.00 0.00 0.00 87 1013.5
20260905112512 23 283 0.0 0.0 0.00 0.00 0.00 86 1013.4
20260905112002 23 283 0.0 0.0 0.00 0.00 0.00 86 1013.3
20260905111504 23 283 0.0 0.0 0.00 0.00 0.00 86 1013.1
20260905111002 23 283 0.0 0.0 0.00 0.00 0.00 87 1013.2
20260905110503 23 283 0.0 0.0 0.00 0.00 0.00 86 1013.1
20260905110003 23 283 0.0 0.0 0.00 0.00 0.00 86 1013.0
20260905105505 23 283 0.0 0.0 0.00 0.00 0.00 87 1013.1
20260905105004 23 283 0.0 0.0 0.00 0.00 0.00 86 1013.1
20260905104510 23 283 0.0 0.0 0.00 0.00 0.00 86 1013.1
20260905104002 23 283 0.0 0.0 0.00 0.00 0.00 86 1013.0
20260905103502 23 283 0.0 0.0 0.00 0.00 0.00 86 1013.1
20260905103010 23 283 0.0 0.0 0.00 0.00 0.00 86 1012.9
20260905102503 23 283 0.0 0.0 0.00 0.00 0.00 86 1012.9
20260905102006 23 283 0.0 0.0 0.00 0.00 0.00 86 1012.9
20260905101504 23 283 0.0 0.0 0.00 0.00 0.00 86 1012.8
20260905101003 23 283 0.0 0.0 0.00 0.00 0.00 86 1012.8
20260905100506 23 283 0.0 0.0 0.00 0.00 0.00 86 1012.8
20260905100010 23 283 0.0 0.0 0.00 0.00 0.00 86 1012.8
20260905095502 23 283 0.0 0.0 0.00 0.00 0.00 86 1012.8
20260905095003 23 283 0.0 0.0 0.00 0.00 0.00 86 1012.7
20260905094510 23 283 0.0 0.0 0.00 0.00 0.00 86 1012.6
20260905094004 23 283 0.0 0.0 0.00 0.00 0.00 86 1012.6
20260905093507 23 283 0.0 0.0 0.00 0.00 0.00 86 1012.5
20260905093003 23 283 0.0 0.0 0.00 0.00 0.00 85 1012.4
20260905092504 23 283 0.0 0.0 0.00 0.00 0.00 84 1012.4
20260905092001 23 283 0.0 0.0 0.00 0.00 0.00 84 1012.4
20260905091504 23 283 0.0 0.0 0.00 0.00 0.00 84 1012.4
20260905091002 23 283 0.0 0.0 0.00 0.00 0.00 84 1012.5
20260905090502 23 283 0.0 0.0 0.00 0.00 0.00 85 1012.6
20260905090004 23 283 0.0 0.0 0.00 0.00 0.00 84 1012.7
20260905085508 23 283 0.0 0.0 0.00 0.00 0.00 84 1012.7
20260905085009 24 283 0.0 0.0 0.00 0.00 0.00 84 1012.7
20260905084507 24 283 0.0 0.0 0.00 0.00 0.00 84 1012.7
20260905084004 24 283 0.0 0.0 0.00 0.00 0.00 84 1012.8
20260905083503 24 283 0.0 0.0 0.00 0.00 0.00 84 1012.9
20260905083005 24 283 0.0 0.0 0.00 0.00 0.00 84 1012.9
20260905082505 24 283 0.0 0.0 0.00 0.00 0.00 84 1012.9
20260905082004 24 283 0.0 0.0 0.00 0.00 0.00 84 1012.9
20260905081508 24 283 0.0 0.0 0.00 0.00 0.00 83 1012.9
20260905081004 24 283 0.0 0.0 0.00 0.00 0.00 83 1013.0
20260905080505 25 283 0.0 0.0 0.00 0.00 0.00 83 1013.0
20260905080008 25 283 0.0 0.0 0.00 0.00 0.00 83 1013.0
20260905075505 25 283 0.0 0.0 0.00 0.00 0.00 83 1013.1
20260905075003 25 283 0.0 0.0 0.00 0.00 0.00 83 1013.2
20260905074507 25 283 0.0 0.0 0.00 0.00 0.00 83 1013.2
20260905074011 25 283 0.0 0.0 0.00 0.00 0.00 83 1013.2
20260905073506 25 283 0.0 0.0 0.00 0.00 0.00 82 1013.2
20260905073011 25 283 0.0 0.0 0.00 0.00 0.00 82 1013.3
20260905072505 25 283 0.0 0.0 0.00 0.00 0.00 82 1013.4
20260905072004 25 283 0.0 0.0 0.00 0.00 0.00 82 1013.4
20260905071510 25 283 0.0 0.0 0.00 0.00 0.00 82 1013.4
20260905071005 25 283 0.0 0.0 0.00 0.00 0.00 81 1013.3
20260905070507 25 283 0.0 0.0 0.00 0.00 0.00 80 1013.3
20260905070013 25 283 0.0 0.0 0.00 0.00 0.00 79 1013.3
20260905065508 26 283 0.0 0.0 0.00 0.00 0.00 79 1013.4
20260905065007 25 283 0.0 0.0 0.00 0.00 0.00 80 1013.4
20260905064516 25 283 0.0 0.0 0.00 0.00 0.00 80 1013.6
20260905064006 25 283 0.0 0.0 0.00 0.00 0.00 80 1013.6
20260905063503 25 283 0.0 0.0 0.00 0.00 0.00 80 1013.5
20260905063008 26 283 0.0 0.0 0.00 0.00 0.00 79 1013.4
20260905062511 26 283 0.0 0.0 0.00 0.00 0.00 80 1013.5
20260905062008 26 283 0.0 0.0 0.00 0.00 0.00 80 1013.4
20260905061512 26 283 0.0 0.0 0.00 0.00 0.00 79 1013.5
20260905061006 26 283 0.0 0.0 0.00 0.00 0.00 80 1013.4
20260905060506 26 283 0.0 0.0 0.00 0.00 0.00 80 1013.5
20260905060015 26 283 0.0 0.0 0.00 0.00 0.00 80 1013.5
20260905055507 26 283 0.0 0.0 0.00 0.00 0.00 80 1013.5
20260905055004 26 283 0.0 0.0 0.00 0.00 0.00 80 1013.5
20260905054511 26 283 0.0 0.0 0.00 0.00 0.00 79 1013.5
20260905054009 26 283 0.0 0.0 0.00 0.00 0.00 79 1013.4
20260905053507 26 283 0.0 0.0 0.00 0.00 0.00 79 1013.4
20260905053025 26 283 0.0 0.0 0.00 0.00 0.00 79 1013.3
20260905052510 26 283 0.0 0.0 0.00 0.00 0.00 79 1013.3
20260905052006 26 283 0.0 0.0 0.00 0.00 0.00 80 1013.2
20260905051514 26 283 0.0 0.0 0.00 0.00 0.00 80 1013.3
20260905051005 26 283 0.0 0.0 0.00 0.00 0.00 80 1013.3
20260905050509 26 283 0.0 0.0 0.00 0.00 0.00 79 1013.2
20260905050012 26 283 0.0 0.0 0.00 0.00 0.00 80 1013.2
20260905045508 26 283 0.0 0.0 0.00 0.00 0.00 79 1013.3
20260905045008 26 283 0.0 0.0 0.00 0.00 0.00 79 1013.3
20260905044513 27 283 0.0 0.0 0.00 0.00 0.00 79 1013.2
20260905044011 27 283 0.0 0.0 0.00 0.00 0.00 78 1013.0
20260905043510 27 283 0.0 0.0 0.00 0.00 0.00 78 1013.0
20260905043012 27 283 0.0 0.0 0.00 0.00 0.00 78 1013.0
20260905042510 27 283 0.0 0.0 0.00 0.00 0.00 77 1013.0
20260905042010 27 283 0.0 0.0 0.00 0.00 0.00 76 1012.9
20260905041516 27 283 0.0 0.0 0.00 0.00 0.00 76 1012.9
20260905041008 27 283 0.0 0.0 0.00 0.00 0.00 76 1012.9
20260905040508 27 283 0.0 0.0 0.00 0.00 0.00 76 1012.9
20260905040018 27 283 0.0 3.2 0.00 0.00 0.00 76 1012.9
20260905035511 27 283 0.0 3.2 0.00 0.00 0.00 76 1012.9
20260905035009 28 283 0.0 3.2 0.00 0.00 0.00 75 1012.9
20260905034512 28 283 0.0 0.0 0.00 0.00 0.00 75 1012.8
20260905034009 28 283 0.0 0.0 0.00 0.00 0.00 74 1012.8
20260905033508 28 284 0.0 0.0 0.00 0.00 0.00 74 1012.8
20260905033016 28 283 0.0 1.6 0.00 0.00 0.00 75 1012.7
20260905032510 28 283 0.0 3.2 0.00 0.00 0.00 74 1012.8
20260905032009 28 283 0.0 3.2 0.00 0.00 0.00 74 1012.7
20260905031519 28 283 0.0 3.2 0.00 0.00 0.00 73 1012.6
20260905031012 28 283 0.0 3.2 0.00 0.00 0.00 73 1012.6
20260905030514 28 275 0.0 3.2 0.00 0.00 0.00 73 1012.6
20260905030020 28 246 0.0 0.0 0.00 0.00 0.00 73 1012.5
20260905025511 28 246 0.0 0.0 0.00 0.00 0.00 73 1012.5
20260905025011 28 246 0.0 1.6 0.00 0.00 0.00 74 1012.5
20260905024528 29 246 0.0 1.6 0.00 0.00 0.00 73 1012.4
20260905024011 29 228 0.0 0.0 0.00 0.00 0.00 73 1012.5
20260905023508 29 228 0.0 0.0 0.00 0.00 0.00 73 1012.4
20260905023016 29 228 0.0 0.0 0.00 0.00 0.00 72 1012.4
20260905022511 29 228 0.0 0.0 0.00 0.00 0.00 72 1012.4
20260905022010 29 228 0.0 0.0 0.00 0.00 0.00 72 1012.4
20260905021515 29 228 0.0 0.0 0.00 0.00 0.00 71 1012.5
20260905021011 30 228 0.0 3.2 0.00 0.00 0.00 71 1012.4
20260905020515 30 228 0.0 3.2 0.00 0.00 0.00 72 1012.3
20260905020030 30 228 0.0 3.2 0.00 0.00 0.00 72 1012.3
20260905015511 30 228 0.0 0.0 0.00 0.00 0.00 71 1012.3
20260905015013 30 228 0.0 0.0 0.00 0.00 0.00 69 1012.2
20260905014516 30 228 0.0 0.0 0.00 0.00 0.00 69 1012.0
20260905014012 30 228 0.0 0.0 0.00 0.00 0.00 69 1011.8
20260905013511 30 228 0.0 0.0 0.00 0.00 0.00 69 1011.8
20260905013020 30 228 0.0 0.0 0.00 0.00 0.00 69 1011.7
20260905012510 30 228 0.0 0.0 0.00 0.00 0.00 69 1011.7
20260905012016 30 228 0.0 0.0 0.00 0.00 0.00 69 1011.7
20260905011521 30 228 0.0 0.0 0.00 0.00 0.00 69 1011.6
20260905011013 30 228 0.0 0.0 0.00 0.00 0.00 69 1011.6
20260905010512 30 228 0.0 0.0 0.00 0.00 0.00 69 1011.6
20260905010019 30 228 0.0 0.0 0.00 0.00 0.00 69 1011.5
20260905005512 30 228 0.0 0.0 0.00 0.00 0.00 69 1011.5
20260905005020 30 228 0.0 0.0 0.00 0.00 0.00 69 1011.5
20260905004520 30 228 0.0 0.0 0.00 0.00 0.00 69 1011.5
20260905004011 31 228 0.0 0.0 0.00 0.00 0.00 69 1011.6
20260905003510 31 228 0.0 0.0 0.00 0.00 0.00 68 1011.5
20260905003019 31 228 0.0 0.0 0.00 0.00 0.00 69 1011.5
20260905002510 31 228 0.0 0.0 0.00 0.00 0.00 69 1011.4
20260905002017 31 228 0.0 3.2 0.00 0.00 0.00 67 1011.4
20260905001521 31 228 0.0 3.2 0.00 0.00 0.00 64 1011.4
20260905001013 32 228 0.0 3.2 0.00 0.00 0.00 65 1011.4
20260905000513 32 224 0.0 8.0 0.00 0.00 0.00 66 1011.5
20260905000024 32 196 1.6 8.0 0.00 0.00 0.00 64 1011.4
20260904235511 32 319 0.0 3.2 0.00 0.00 0.00 66 1011.5
20260904235017 32 319 0.0 1.6 0.00 0.00 0.00 66 1011.5
20260904234525 31 323 0.0 3.2 0.00 0.00 0.00 67 1011.5
20260904234013 31 323 0.0 3.2 0.00 0.00 0.00 67 1011.4
20260904233513 31 323 0.0 3.2 0.00 0.00 0.00 63 1011.5
20260904233023 32 323 0.0 3.2 0.00 0.00 0.00 63 1011.6
20260904232512 32 323 0.0 3.2 0.00 0.00 0.00 63 1011.6
20260904232017 32 133 0.0 3.2 0.00 0.00 0.00 61 1011.6
20260904231526 33 138 0.0 3.2 0.00 0.00 0.00 61 1011.6
20260904231014 33 138 0.0 4.8 0.00 0.00 0.00 60 1011.6
20260904230517 34 146 1.6 4.8 0.00 0.00 0.00 57 1011.7
20260904230026 33 243 1.6 4.8 0.00 0.00 0.00 58 1011.7
20260904225515 33 265 1.6 4.8 0.00 0.00 0.00 56 1011.7
20260904225020 33 267 1.6 4.8 0.00 0.00 0.00 57 1011.7
20260904224527 33 265 0.0 3.2 0.00 0.00 0.00 55 1011.6
20260904224014 33 291 0.0 3.2 0.00 0.00 0.00 61 1011.6
20260904223514 33 284 0.0 3.2 0.00 0.00 0.00 59 1011.6
20260904223027 33 288 0.0 3.2 0.00 0.00 0.00 58 1011.7
20260904222517 34 240 1.6 6.4 0.00 0.00 0.00 55 1011.7
20260904222016 34 189 1.6 6.4 0.00 0.00 0.00 54 1011.7
20260904221528 35 293 1.6 3.2 0.00 0.00 0.00 54 1011.6
20260904221017 34 68 0.0 3.2 0.00 0.00 0.00 58 1011.6
20260904220514 34 173 0.0 8.0 0.00 0.00 0.00 57 1011.6
20260904220029 34 327 0.0 8.0 0.00 0.00 0.00 55 1011.6
20260904215513 35 257 1.6 6.4 0.00 0.00 0.00 54 1011.5
20260904215021 35 174 1.6 4.8 0.00 0.00 0.00 56 1011.5
20260904214526 35 330 1.6 6.4 0.00 0.00 0.00 55 1011.6
20260904214012 35 263 3.2 6.4 0.00 0.00 0.00 53 1011.5
20260904213520 35 275 3.2 6.4 0.00 0.00 0.00 53 1011.5
20260904213029 35 253 1.6 12.9 0.00 0.00 0.00 54 1011.5
20260904212507 35 281 4.8 11.3 0.00 0.00 0.00 53 1011.5
20260904212001 35 216 1.6 11.3 0.00 0.00 0.00 53 1011.4
20260904211503 35 223 1.6 11.3 0.00 0.00 0.00 53 1011.4
20260904211012 35 239 3.2 9.7 0.00 0.00 0.00 53 1011.6
20260904210503 35 88 1.6 6.4 0.00 0.00 0.00 53 1011.6
20260904210008 35 313 1.6 6.4 0.00 0.00 0.00 55 1011.6
20260904205506 35 271 1.6 6.4 0.00 0.00 0.00 55 1011.5
20260904205006 35 255 1.6 6.4 0.00 0.00 0.00 53 1011.5
20260904204503 35 190 1.6 9.7 0.00 0.00 0.00 52 1011.5
20260904204003 35 260 4.8 12.9 0.00 0.00 0.00 53 1011.5
20260904203502 35 163 1.6 12.9 0.00 0.00 0.00 55 1011.6
20260904203004 35 294 1.6 6.4 0.00 0.00 0.00 55 1011.7
20260904202502 35 11 3.2 6.4 0.00 0.00 0.00 53 1011.7
20260904202005 34 351 1.6 6.4 0.00 0.00 0.00 53 1011.8
20260904201511 35 195 3.2 6.4 0.00 0.00 0.00 53 1011.8
20260904201003 35 321 1.6 6.4 0.00 0.00 0.00 58 1011.8
20260904200505 35 236 1.6 6.4 0.00 0.00 0.00 54 1011.8
20260904200018 35 110 1.6 6.4 0.00 0.00 0.00 54 1011.8
20260904195503 35 113 1.6 9.7 0.00 0.00 0.00 54 1011.9
20260904195017 35 303 1.6 9.7 0.00 0.00 0.00 55 1011.9
20260904194512 35 299 1.6 6.4 0.00 0.00 0.00 58 1011.9
20260904194011 34 230 1.6 9.7 0.00 0.00 0.00 55 1011.9
20260904193515 34 118 3.2 9.7 0.00 0.00 0.00 55 1012.0
20260904193003 34 161 3.2 9.7 0.00 0.00 0.00 55 1012.0
20260904192502 34 315 3.2 6.4 0.00 0.00 0.00 56 1012.0
20260904192004 34 319 1.6 6.4 0.00 0.00 0.00 54 1012.1
20260904191504 34 128 1.6 6.4 0.00 0.00 0.00 55 1012.1
20260904191007 34 182 3.2 9.7 0.00 0.00 0.00 54 1012.1
20260904190506 34 333 3.2 9.7 0.00 0.00 0.00 56 1012.1
20260904190013 35 275 1.6 4.8 0.00 0.00 0.00 56 1012.1